H1 CPF 2 NER 2021 7 7 9 188 01 glonass105 H2 0705202 9105 32276 2021 7 7 0 0 0 2021 7 10 23 45 0 900 1 1 0 0 0 1 H9 10 0 59402 0.00000 0 -4855276.825 -22084984.861 11843905.547 10 0 59402 900.00000 0 -5080197.005 -23365527.717 8939432.854 10 0 59402 1800.00000 0 -5371282.803 -24259235.280 5861699.626 10 0 59402 2700.00000 0 -5672085.036 -24747659.933 2670366.126 10 0 59402 3600.00000 0 -5924476.245 -24825990.763 -572717.557 10 0 59402 4500.00000 0 -6071328.013 -24503168.697 -3804703.834 10 0 59402 5400.00000 0 -6059151.925 -23801446.232 -6962958.954 10 0 59402 6300.00000 0 -5840592.817 -22755410.248 -9986270.352 10 0 59402 7200.00000 0 -5376669.167 -21410508.855 -12816026.913 10 0 59402 8100.00000 0 -4638665.904 -19821143.717 -15397349.754 10 0 59402 9000.00000 0 -3609599.301 -18048407.267 -17680152.042 10 0 59402 9900.00000 0 -2285191.428 -16157558.942 -19620107.639 10 0 59402 10800.00000 0 -674311.852 -14215345.295 -21179510.213 10 0 59402 11700.00000 0 1201133.631 -12287275.287 -22328006.454 10 0 59402 12600.00000 0 3306864.519 -10434963.967 -23043189.273 10 0 59402 13500.00000 0 5597411.871 -8713654.897 -23311039.474 10 0 59402 14400.00000 0 8017782.026 -7170024.324 -23126207.049 10 0 59402 15300.00000 0 10505530.376 -5840358.630 -22492126.086 10 0 59402 16200.00000 0 12993160.620 -4749181.089 -21420960.304 10 0 59402 17100.00000 0 15410751.016 -3908385.440 -19933379.282 10 0 59402 18000.00000 0 17688699.088 -3316912.735 -18058168.640 10 0 59402 18900.00000 0 19760470.868 -2960985.196 -15831680.627 10 0 59402 19800.00000 0 21565239.965 -2814887.355 -13297134.775 10 0 59402 20700.00000 0 23050305.697 -2842261.611 -10503781.449 10 0 59402 21600.00000 0 24173188.461 -2997863.302 -7505944.124 10 0 59402 22500.00000 0 24903313.657 -3229700.628 -4361958.871 10 0 59402 23400.00000 0 25223212.627 -3481468.105 -1133032.156 10 0 59402 24300.00000 0 25129189.491 -3695169.333 2117960.114 10 0 59402 25200.00000 0 24631425.438 -3813816.579 5327707.894 10 0 59402 26100.00000 0 23753516.013 -3784091.203 8433711.244 10 0 59402 27000.00000 0 22531461.319 -3558850.594 11375507.982 10 0 59402 27900.00000 0 21012152.279 -3099373.880 14095859.656 10 0 59402 28800.00000 0 19251417.744 -2377250.069 16541871.640 10 0 59402 29700.00000 0 17311715.643 -1375827.729 18666024.917 10 0 59402 30600.00000 0 15259566.261 -91164.199 20427099.228 10 0 59402 31500.00000 0 13162836.308 1467566.078 21790969.723 10 0 59402 32400.00000 0 11087988.120 3278221.588 22731262.188 10 0 59402 33300.00000 0 9097409.266 5306395.915 23229854.986 10 0 59402 34200.00000 0 7246933.856 7506642.628 23277218.958 10 0 59402 35100.00000 0 5583658.203 9824171.674 22872589.864 10 0 59402 36000.00000 0 4144140.662 12196946.605 22023971.090 10 0 59402 36900.00000 0 2953059.100 14558095.353 20747967.523 10 0 59402 37800.00000 0 2022380.107 16838534.564 19069454.575 10 0 59402 38700.00000 0 1351072.535 18969698.802 17021089.230 10 0 59402 39600.00000 0 925375.421 20886261.677 14642672.843 10 0 59402 40500.00000 0 719607.203 22528736.429 11980378.060 10 0 59402 41400.00000 0 697480.771 23845848.558 9085854.575 10 0 59402 42300.00000 0 813867.970 24796582.385 6015230.828 10 0 59402 43200.00000 0 1016938.530 25351817.047 2828030.537 10 0 59402 44100.00000 0 1250582.894 25495484.316 -413975.392 10 0 59402 45000.00000 0 1457016.684 25225200.366 -3647959.708 10 0 59402 45900.00000 0 1579456.950 24552345.464 -6811249.782 10 0 59402 46800.00000 0 1564757.392 23501588.346 -9842535.685 10 0 59402 47700.00000 0 1365891.452 22109875.069 -12683052.309 10 0 59402 48600.00000 0 944178.473 20424924.296 -15277713.076 10 0 59402 49500.00000 0 271158.721 18503291.376 -17576173.715 10 0 59402 50400.00000 0 -669962.253 16408081.437 -19533805.806 10 0 59402 51300.00000 0 -1883361.741 14206406.216 -21112561.665 10 0 59402 52200.00000 0 -3360181.876 11966689.852 -22281714.058 10 0 59402 53100.00000 0 -5078664.686 9755935.292 -23018456.525 10 0 59402 54000.00000 0 -7004836.603 7637064.457 -23308352.670 10 0 59402 54900.00000 0 -9093715.906 5666442.433 -23145625.411 10 0 59402 55800.00000 0 -11290994.697 3891688.473 -22533280.070 10 0 59402 56700.00000 0 -13535127.176 2349864.785 -21483058.150 10 0 59402 57600.00000 0 -15759738.693 1066118.568 -20015221.734 10 0 59402 58500.00000 0 -17896256.196 52834.069 -18158171.614 10 0 59402 59400.00000 0 -19876650.975 -690669.859 -15947905.458 10 0 59402 60300.00000 0 -21636179.314 -1177884.016 -13427325.503 10 0 59402 61200.00000 0 -23116006.027 -1434305.743 -10645408.472 10 0 59402 62100.00000 0 -24265600.382 -1496122.602 -7656253.374 10 0 59402 63000.00000 0 -25044802.955 -1408438.887 -4518025.577 10 0 59402 63900.00000 0 -25425475.546 -1223120.738 -1291818.113 10 0 59402 64800.00000 0 -25392663.822 -996352.150 1959546.935 10 0 59402 65700.00000 0 -24945222.977 -786006.747 5172752.588 10 0 59402 66600.00000 0 -24095879.593 -648948.227 8285231.312 10 0 59402 67500.00000 0 -22870727.012 -638375.483 11236394.031 10 0 59402 68400.00000 0 -21308175.772 -801326.465 13968818.636 10 0 59402 69300.00000 0 -19457403.894 -1176447.817 16429373.792 10 0 59402 70200.00000 0 -17376373.016 -1792125.805 18570255.488 10 0 59402 71100.00000 0 -15129494.581 -2665058.326 20349915.932 10 0 59402 72000.00000 0 -12785044.819 -3799328.718 21733866.755 10 0 59402 72900.00000 0 -10412437.365 -5186020.662 22695341.508 10 0 59402 73800.00000 0 -8079467.766 -6803390.409 23215805.378 10 0 59402 74700.00000 0 -5849644.817 -8617588.981 23285303.256 10 0 59402 75600.00000 0 -3779719.338 -10583904.040 22902640.526 10 0 59402 76500.00000 0 -1917512.209 -12648469.418 22075394.153 10 0 59402 77400.00000 0 -300130.694 -14750370.923 20819754.813 10 0 59402 78300.00000 0 1047354.559 -16824060.757 19160203.864 10 0 59402 79200.00000 0 2112718.751 -18801980.220 17129031.921 10 0 59402 80100.00000 0 2896846.711 -20617281.818 14765708.613 10 0 59402 81000.00000 0 3413442.267 -22206537.864 12116115.767 10 0 59402 81900.00000 0 3688197.222 -23512323.360 9231658.650 10 0 59402 82800.00000 0 3757456.271 -24485565.937 6168272.263 10 0 59402 83700.00000 0 3666435.112 -25087565.470 2985341.504 10 0 59402 84600.00000 0 3467067.498 -25291599.481 -255444.338 10 0 59402 85500.00000 0 3215572.290 -25084047.584 -3491280.902 10 0 59403 0.00000 0 2969843.226 -24464988.221 -6659459.271 10 0 59403 900.00000 0 2786771.739 -23448242.320 -9698575.030 10 0 59403 1800.00000 0 2719614.775 -22060862.779 -12549711.832 10 0 59403 2700.00000 0 2815520.139 -20342089.089 -15157578.226 10 0 59403 3600.00000 0 3113312.106 -18341811.600 -17471575.280 10 0 59403 4500.00000 0 3641632.090 -16118607.783 -19446774.944 10 0 59403 5400.00000 0 4417512.772 -13737431.837 -21044790.587 10 0 59403 6300.00000 0 5445446.821 -11267052.797 -22234523.146 10 0 59403 7200.00000 0 6716990.610 -8777346.943 -22992768.492 10 0 59403 8100.00000 0 8210921.258 -6336556.261 -23304674.286 10 0 59403 9000.00000 0 9893942.344 -4008626.187 -23164037.189 10 0 59403 9900.00000 0 11721910.689 -1850732.904 -22573434.113 10 0 59403 10800.00000 0 13641534.869 88897.414 -21544184.284 10 0 59403 11700.00000 0 15592476.180 1772786.813 -20096141.810 10 0 59403 12600.00000 0 17509765.525 3175546.311 -18257321.776 10 0 59403 13500.00000 0 19326436.087 4284703.257 -16063365.975 10 0 59403 14400.00000 0 20976262.000 5100980.744 -13556857.624 10 0 59403 15300.00000 0 22396488.118 5638017.413 -10786497.645 10 0 59403 16200.00000 0 23530435.853 5921539.774 -7806158.005 10 0 59403 17100.00000 0 24329874.730 5988022.403 -4673830.406 10 0 59403 18000.00000 0 24757058.776 5882893.314 -1450491.170 10 0 59403 18900.00000 0 24786340.909 5658361.442 1801094.909 10 0 59403 19800.00000 0 24405296.220 5370959.476 5017607.468 10 0 59403 20700.00000 0 23615305.986 5078907.586 8136414.890 10 0 59403 21600.00000 0 22431577.309 4839411.367 11096804.538 10 0 59403 22500.00000 0 20882597.371 4706009.979 13841173.737 10 0 59403 23400.00000 0 19009045.522 4726088.256 16316157.213 10 0 59403 24300.00000 0 16862209.424 4938659.193 18473668.381 10 0 59403 25200.00000 0 14501972.381 5372511.429 20271833.936 10 0 59403 26100.00000 0 11994456.972 6044800.447 21675803.621 10 0 59403 27000.00000 0 9409424.159 6960143.078 22658419.957 10 0 59403 27900.00000 0 6817536.828 8110253.398 23200735.737 10 0 59403 28800.00000 0 4287601.964 9474135.050 23292370.216 10 0 59403 29700.00000 0 1883905.881 11018821.670 22931698.253 10 0 59403 30600.00000 0 -336247.523 12700634.126 22125869.764 10 0 59403 31500.00000 0 -2324694.307 14466901.721 20890660.111 10 0 59403 32400.00000 0 -4044175.803 16258075.402 19250155.066 10 0 59403 33300.00000 0 -5469640.219 18010144.788 17236276.969 10 0 59403 34200.00000 0 -6589028.328 19657258.327 14888161.509 10 0 59403 35100.00000 0 -7403512.634 21134437.533 12251397.257 10 0 59403 36000.00000 0 -7927182.012 22380272.467 9377142.467 10 0 59403 36900.00000 0 -8186186.740 23339486.256 6321136.022 10 0 59403 37800.00000 0 -8217381.251 23965261.971 3142621.269 10 0 59403 38700.00000 0 -8066522.662 24221234.931 -96796.852 10 0 59403 39600.00000 0 -7786101.553 24083067.285 -3334339.590 10 0 59403 40500.00000 0 -7432896.729 23539539.093 -6507264.514 10 0 59403 41400.00000 0 -7065357.108 22593110.041 -9554075.007 10 0 59403 42300.00000 0 -6740921.034 21259927.934 -12415705.966 10 0 59403 43200.00000 0 -6513385.939 19569282.986 -15036663.253 10 0 59403 44100.00000 0 -6430439.126 17562529.820 -17366095.214 10 0 59403 45000.00000 0 -6531453.751 15291521.223 -19358775.862 10 0 59403 45900.00000 0 -6845643.129 12816617.779 -20975981.088 10 0 59403 46800.00000 0 -7390651.583 10204355.067 -22186241.216 10 0 59403 47700.00000 0 -8171642.005 7524864.337 -22965955.432 10 0 59403 48600.00000 0 -9180919.712 4849152.805 -23299856.188 10 0 59403 49500.00000 0 -10398109.931 2246355.537 -23181314.313 10 0 59403 50400.00000 0 -11790883.185 -218927.580 -22612478.426 10 0 59403 51300.00000 0 -13316199.959 -2489099.719 -21604245.200 10 0 59403 52200.00000 0 -14922024.242 -4515737.661 -20176060.109 10 0 59403 53100.00000 0 -16549435.532 -6261374.691 -18355551.465 10 0 59403 54000.00000 0 -18135051.920 -7700821.679 -16178003.746 10 0 59403 54900.00000 0 -19613663.233 -8821971.177 -13685679.393 10 0 59403 55800.00000 0 -20920963.799 -9626050.878 -10927001.502 10 0 59403 56700.00000 0 -21996269.635 -10127316.058 -7955612.769 10 0 59403 57600.00000 0 -22785104.965 -10352194.340 -4829328.850 10 0 59403 58500.00000 0 -23241548.033 -10337919.442 -1609006.852 10 0 59403 59400.00000 0 -23330236.073 -10130712.568 1642648.332 10 0 59403 60300.00000 0 -23027943.632 -9783589.515 4862315.659 10 0 59403 61200.00000 0 -22324666.517 -9353887.729 7987302.210 10 0 59403 62100.00000 0 -21224164.789 -8900619.543 10956774.616 10 0 59403 63000.00000 0 -19743941.352 -8481765.273 13712952.444 10 0 59403 63900.00000 0 -17914656.872 -8151622.175 16202239.189 10 0 59403 64800.00000 0 -15779005.726 -7958322.669 18376268.203 10 0 59403 65700.00000 0 -13390100.554 -7941627.639 20192842.904 10 0 59403 66600.00000 0 -10809433.623 -8131088.485 21616753.008 10 0 59403 67500.00000 0 -8104500.763 -8544655.647 22620451.448 10 0 59403 68400.00000 0 -5346187.412 -9187792.026 23184579.609 10 0 59403 69300.00000 0 -2606025.878 -10053128.209 23298331.659 10 0 59403 70200.00000 0 46562.295 -11120673.458 22959652.048 10 0 59403 71100.00000 0 2546924.893 -12358573.086 22175263.383 10 0 59403 72000.00000 0 4837629.019 -13724379.959 20960525.115 10 0 59403 72900.00000 0 6870602.201 -15166786.546 19339126.536 10 0 59403 73800.00000 0 8608877.366 -16627744.857 17342620.522 10 0 59403 74700.00000 0 10027870.998 -18044885.529 15009807.363 10 0 59403 75600.00000 0 11116143.294 -19354135.040 12385980.639 10 0 59403 76500.00000 0 11875610.647 -20492421.829 9522049.582 10 0 59403 77400.00000 0 12321203.366 -21400358.374 6473554.694 10 0 59403 78300.00000 0 12479984.606 -22024787.321 3299595.288 10 0 59403 79200.00000 0 12389768.739 -22321085.311 61689.304 10 0 59403 80100.00000 0 12097298.082 -22255128.148 -3177412.868 10 0 59403 81000.00000 0 11656055.272 -21804834.996 -6354938.031 10 0 59403 81900.00000 0 11123803.592 -20961226.645 -9409300.292 10 0 59403 82800.00000 0 10559958.877 -19728953.093 -12281288.516 10 0 59403 83700.00000 0 10022903.568 -18126267.613 -14915208.562 10 0 59403 84600.00000 0 9567355.847 -16184447.387 -17259958.622 10 0 59403 85500.00000 0 9241904.514 -13946683.765 -19270017.164 10 0 59404 0.00000 0 9086813.278 -11466487.108 -20906324.707 10 0 59404 900.00000 0 9132187.447 -8805670.940 -22137042.840 10 0 59404 1800.00000 0 9396579.369 -6031998.548 -22938175.493 10 0 59404 2700.00000 0 9886094.091 -3216587.675 -23294040.918 10 0 59404 3600.00000 0 10594031.660 -431180.309 -23197584.722 10 0 59404 4500.00000 0 11501083.942 2254610.075 -22650527.399 10 0 59404 5400.00000 0 12576078.503 4775960.395 -21663342.839 10 0 59404 6300.00000 0 13777240.070 7075298.877 -20255067.267 10 0 59404 7200.00000 0 15053917.931 9104462.871 -18452941.238 10 0 59404 8100.00000 0 16348707.904 10826463.831 -16291890.572 10 0 59404 9000.00000 0 17599880.454 12216785.822 -13813855.221 10 0 59404 9900.00000 0 18744013.136 13264163.186 -11066978.376 10 0 59404 10800.00000 0 19718716.345 13970804.866 -8104671.025 10 0 59404 11700.00000 0 20465336.915 14352056.216 -4984570.012 10 0 59404 12600.00000 0 20931524.492 14435512.959 -1767410.206 10 0 59404 13500.00000 0 21073551.133 14259625.457 1484166.620 10 0 59404 14400.00000 0 20858284.810 13871853.267 4706842.037 10 0 59404 15300.00000 0 20264732.140 13326449.268 7837865.088 10 0 59404 16200.00000 0 19285084.065 12681968.612 10816284.815 10 0 59404 17100.00000 0 17925219.450 11998609.378 13584145.964 10 0 59404 18000.00000 0 16204644.819 11335498.929 16087623.489 10 0 59404 18900.00000 0 14155872.520 10748041.965 18278073.066 10 0 59404 19800.00000 0 11823263.436 10285443.290 20112976.899 10 0 59404 20700.00000 0 9261383.050 9988510.426 21556766.392 10 0 59404 21600.00000 0 6532939.938 9887828.900 22581506.221 10 0 59404 22500.00000 0 3706393.019 10002386.843 23167427.282 10 0 59404 23400.00000 0 853327.496 10338706.209 23303299.128 10 0 59404 24300.00000 0 -1954291.507 10890516.391 22986635.789 10 0 59404 25200.00000 0 -4646873.913 11638983.082 22223732.044 10 0 59404 26100.00000 0 -7159854.625 12553481.956 21029530.402 10 0 59404 27000.00000 0 -9436129.588 13592884.001 19427322.149 10 0 59404 27900.00000 0 -11428178.331 14707298.112 17448288.745 10 0 59404 28800.00000 0 -13099786.431 15840197.570 15130892.769 10 0 59404 29700.00000 0 -14427298.143 16930841.184 12520130.242 10 0 59404 30600.00000 0 -15400348.912 17916887.676 9666658.652 10 0 59404 31500.00000 0 -16022048.964 18737093.876 6625817.324 10 0 59404 32400.00000 0 -16308611.971 19333983.798 3456558.759 10 0 59404 33300.00000 0 -16288445.717 19656376.859 220311.156 10 0 59404 34200.00000 0 -16000743.918 19661669.288 -3020206.128 10 0 59404 35100.00000 0 -15493639.084 19317772.973 -6202191.714 10 0 59404 36000.00000 0 -14821994.456 18604630.185 -9263972.913 10 0 59404 36900.00000 0 -14044928.000 17515240.167 -12146194.880 10 0 59404 37800.00000 0 -13223172.546 16056153.845 -14792965.618 10 0 59404 38700.00000 0 -12416382.913 14247414.855 -17152935.102 10 0 59404 39600.00000 0 -11680502.998 12121948.132 -19180287.926 10 0 59404 40500.00000 0 -11065303.354 9724420.023 -20835630.701 10 0 59404 41400.00000 0 -10612192.607 7109615.826 -22086757.314 10 0 59404 42300.00000 0 -10352394.806 4340400.623 -22909277.320 10 0 59404 43200.00000 0 -10305569.585 1485346.579 -23287095.372 10 0 59404 44100.00000 0 -10478933.705 -1383876.296 -23212732.115 10 0 59404 45000.00000 0 -10866921.728 -4195238.757 -22687479.866 10 0 59404 45900.00000 0 -11451401.158 -6879107.675 -21721389.349 10 0 59404 46800.00000 0 -12202434.197 -9370904.408 -20333086.792 10 0 59404 47700.00000 0 -13079555.279 -11613556.036 -18549423.913 10 0 59404 48600.00000 0 -14033511.713 -13559637.605 -16404966.463 10 0 59404 49500.00000 0 -15008394.968 -15173116.083 -13941330.226 10 0 59404 50400.00000 0 -15944073.185 -16430622.942 -11206376.579 10 0 59404 51300.00000 0 -16778822.379 -17322202.045 -8253282.736 10 0 59404 52200.00000 0 -17452044.767 -17851501.478 -5139504.528 10 0 59404 53100.00000 0 -17906958.549 -18035401.419 -1925652.281 10 0 59404 54000.00000 0 -18093144.246 -17903094.285 1325697.733 10 0 59404 54900.00000 0 -17968838.556 -17494656.724 4551232.177 10 0 59404 55800.00000 0 -17502877.303 -16859174.864 7688144.628 10 0 59404 56700.00000 0 -16676203.995 -16052503.381 10675369.175 10 0 59404 57600.00000 0 -15482879.121 -15134754.541 13454778.413 10 0 59404 58500.00000 0 -13930546.751 -14167624.805 15972321.368 10 0 59404 59400.00000 0 -12040338.194 -13211673.258 18179078.536 10 0 59404 60300.00000 0 -9846216.475 -12323667.742 20032213.180 10 0 59404 61200.00000 0 -7393789.127 -11554111.331 21495800.362 10 0 59404 62100.00000 0 -4738639.101 -10945053.558 22541518.110 10 0 59404 63000.00000 0 -1944243.633 -10528278.297 23149188.035 10 0 59404 63900.00000 0 920431.987 -10323943.901 23307155.857 10 0 59404 64800.00000 0 3783565.699 -10339731.789 23012505.558 10 0 59404 65700.00000 0 6573226.007 -10570538.110 22271104.074 10 0 59404 66600.00000 0 9220121.757 -10998720.278 21097476.610 10 0 59404 67500.00000 0 11660241.215 -11594886.898 19514515.746 10 0 59404 68400.00000 0 13837272.091 -12319197.018 17553030.515 10 0 59404 69300.00000 0 15704703.389 -13123113.471 15251144.451 10 0 59404 70200.00000 0 17227523.328 -13951536.271 12653554.366 10 0 59404 71100.00000 0 18383444.401 -14745226.269 9810664.017 10 0 59404 72000.00000 0 19163606.078 -15443417.279 6777609.243 10 0 59404 72900.00000 0 19572727.443 -15986507.014 3613193.112 10 0 59404 73800.00000 0 19628704.726 -16318713.951 378751.226 10 0 59404 74700.00000 0 19361671.653 -16390588.558 -2863031.107 10 0 59404 75600.00000 0 18812562.853 -16161273.363 -6049327.406 10 0 59404 76500.00000 0 18031241.076 -15600416.744 -9118381.244 10 0 59404 77400.00000 0 17074267.089 -14689659.635 -12010697.029 10 0 59404 78300.00000 0 16002405.874 -13423632.063 -14670187.716 10 0 59404 79200.00000 0 14877973.662 -11810416.720 -17045257.659 10 0 59404 80100.00000 0 13762136.907 -9871458.852 -19089799.952 10 0 59404 81000.00000 0 12712276.247 -7640924.683 -20764089.362 10 0 59404 81900.00000 0 11779525.758 -5164533.322 -22035553.885 10 0 59404 82800.00000 0 11006590.583 -2497909.039 -22879410.093 10 0 59404 83700.00000 0 10425934.466 295479.425 -23279150.025 10 0 59404 84600.00000 0 10058413.406 3146708.632 -23226869.948 10 0 59404 85500.00000 0 9912413.214 5984021.512 -22723434.161 10 0 59405 0.00000 0 9983527.758 8735572.171 -21778469.987 10 0 59405 900.00000 0 10254792.436 11332181.394 -20410192.939 10 0 59405 1800.00000 0 10697463.244 13709988.935 -18645064.888 10 0 59405 2700.00000 0 11272310.656 15812891.906 -16517290.093 10 0 59405 3600.00000 0 11931373.251 17594668.666 -14068158.389 10 0 59405 4500.00000 0 12620098.386 19020698.247 -11345247.210 10 0 59405 5400.00000 0 13279779.221 20069203.684 -8401497.509 10 0 59405 6300.00000 0 13850184.881 20731966.739 -5294181.326 10 0 59405 7200.00000 0 14272271.747 21014483.899 -2083781.405 10 0 59405 8100.00000 0 14490860.056 20935557.314 1167194.702 10 0 59405 9000.00000 0 14457161.145 20526338.415 4395442.048 10 0 59405 9900.00000 0 14131046.914 19828865.363 7538102.012 10 0 59405 10800.00000 0 13482964.019 18894157.177 10533996.890 10 0 59405 11700.00000 0 12495410.486 17779946.328 13324830.082 10 0 59405 12600.00000 0 11163911.324 16548146.897 15856327.397 10 0 59405 13500.00000 0 9497451.144 15262166.437 18079296.577 10 0 59405 14400.00000 0 7518344.990 13984176.009 19950584.040 10 0 59405 15300.00000 0 5261552.572 12772454.141 21433910.263 10 0 59405 16200.00000 0 2773464.538 11678916.846 22500567.996 10 0 59405 17100.00000 0 110211.479 10746937.365 23129970.520 10 0 59405 18000.00000 0 -2664433.623 10009546.654 23310040.214 10 0 59405 18900.00000 0 -5481472.263 9488089.114 23037431.008 10 0 59405 19800.00000 0 -8269316.316 9191388.682 22317581.462 10 0 59405 20700.00000 0 -10956533.810 9115458.798 21164598.390 10 0 59405 21600.00000 0 -13474591.331 9243766.942 19600974.063 10 0 59405 22500.00000 0 -15760480.140 9548041.279 17657142.987 10 0 59405 23400.00000 0 -17759118.057 9989584.408 15370887.154 10 0 59405 24300.00000 0 -19425428.662 10521038.178 12786601.354 10 0 59405 25200.00000 0 -20726012.748 11088524.822 9954432.612 10 0 59405 26100.00000 0 -21640343.817 11634074.096 6929310.213 10 0 59405 27000.00000 0 -22161439.131 12098234.238 3769884.740 10 0 59405 27900.00000 0 -22295979.575 12422756.900 537396.248 10 0 59405 28800.00000 0 -22063874.267 12553243.156 -2705506.834 10 0 59405 29700.00000 0 -21497288.998 12441639.259 -5895975.599 10 0 59405 30600.00000 0 -20639179.670 12048477.004 -8972172.404 10 0 59405 31500.00000 0 -19541392.500 11344764.213 -11874463.256 10 0 59405 32400.00000 0 -18262410.640 10313445.271 -14546568.205 10 0 59405 33300.00000 0 -16864841.498 8950369.534 -16936647.886 10 0 59405 34200.00000 0 -15412749.778 7264725.779 -18998305.493 10 0 59405 35100.00000 0 -13968947.555 5278922.990 -20691485.225 10 0 59405 36000.00000 0 -12592354.471 3027920.649 -21983250.104 10 0 59405 36900.00000 0 -11335538.233 558034.558 -22848424.262 10 0 59405 37800.00000 0 -10242538.089 -2074734.088 -23270087.296 10 0 59405 38700.00000 0 -9347062.326 -4806778.853 -23239910.913 10 0 59405 39600.00000 0 -8671135.345 -7569292.664 -22758330.857 10 0 59405 40500.00000 0 -8224251.277 -10290898.486 -21834550.127 10 0 59405 41400.00000 0 -8003070.029 -12900397.936 -20486372.479 10 0 59405 42300.00000 0 -7991669.088 -15329524.220 -18739868.418 10 0 59405 43200.00000 0 -8162340.976 -17515585.219 -16628879.059 10 0 59405 44100.00000 0 -8476903.278 -19403886.606 -14194366.433 10 0 59405 45000.00000 0 -8888466.290 -20949833.478 -11483622.057 10 0 59405 45900.00000 0 -9343583.643 -22120622.248 -8549348.592 10 0 59405 46800.00000 0 -9784694.706 -22896451.388 -5448632.221 10 0 59405 47700.00000 0 -10152754.698 -23271199.838 -2241826.043 10 0 59405 48600.00000 0 -10389940.133 -23252544.372 1008633.176 10 0 59405 49500.00000 0 -10442313.677 -22861511.150 4239450.968 10 0 59405 50400.00000 0 -10262334.054 -22131480.785 7387718.649 10 0 59405 51300.00000 0 -9811103.181 -21106689.739 10392148.901 10 0 59405 52200.00000 0 -9060253.980 -19840292.302 13194278.157 10 0 59405 53100.00000 0 -7993397.808 -18392066.134 15739611.241 10 0 59405 54000.00000 0 -6607069.368 -16825859.356 17978685.299 10 0 59405 54900.00000 0 -4911128.539 -15206887.800 19868031.944 10 0 59405 55800.00000 0 -2928601.755 -13598997.030 21371018.890 10 0 59405 56700.00000 0 -694969.334 -12062004.628 22458555.174 10 0 59405 57600.00000 0 1743071.557 -10649234.322 23109646.981 10 0 59405 58500.00000 0 4329316.592 -9405344.904 23311794.245 10 0 59405 59400.00000 0 7000165.442 -8364543.945 23061221.384 10 0 59405 60300.00000 0 9687046.674 -7549259.773 22362938.770 10 0 59405 61200.00000 0 12319055.811 -6969325.788 21230634.684 10 0 59405 62100.00000 0 14825697.460 -6621709.484 19686400.619 10 0 59405 63000.00000 0 17139618.364 -6490795.846 17760295.772 10 0 59405 63900.00000 0 19199218.619 -6549211.676 15489759.496 10 0 59405 64800.00000 0 20951033.665 -6759154.921 12918883.135 10 0 59405 65700.00000 0 22351789.062 -7074172.132 10097555.211 10 0 59405 66600.00000 0 23370043.664 -7441308.644 7080496.335 10 0 59405 67500.00000 0 23987353.839 -7803540.595 3926202.154 10 0 59405 68400.00000 0 24198911.201 -8102386.180 695814.419 10 0 59405 69300.00000 0 24013628.074 -8280586.166 -2548058.285 10 0 59405 70200.00000 0 23453667.796 -8284740.722 -5742547.724 10 0 59405 71100.00000 0 22553439.995 -8067791.465 -8825738.148 10 0 59405 72000.00000 0 21358103.068 -7591244.042 -11737860.192 10 0 59405 72900.00000 0 19921636.572 -6827037.302 -14422443.871 10 0 59405 73800.00000 0 18304563.954 -5758979.767 -16827408.756 10 0 59405 74700.00000 0 16571420.580 -4383692.086 -18906070.557 10 0 59405 75600.00000 0 14788072.449 -2711014.547 -20618045.041 10 0 59405 76500.00000 0 13018997.152 -763860.912 -21930032.110 10 0 59405 77400.00000 0 11324640.228 1422477.226 -22816464.994 10 0 59405 78300.00000 0 9758956.879 3801548.612 -23260012.044 10 0 59405 79200.00000 0 8367241.434 6317434.376 -23251921.217 10 0 59405 80100.00000 0 7184335.086 8906845.429 -22792200.118 10 0 59405 81000.00000 0 6233286.829 11501539.700 -21889627.446 10 0 59405 81900.00000 0 5524523.716 14030960.097 -20561594.702 10 0 59405 82800.00000 0 5055565.477 16424984.303 -18833780.201 10 0 59405 83700.00000 0 4811295.722 18616672.459 -16739660.623 10 0 59405 84600.00000 0 4764778.524 20544898.304 -14319868.503 10 0 59405 85500.00000 0 4878586.170 22156753.554 -11621407.351 99